Weather History for KEST - November, 2014

Change the Weather History Date:

Sunday, November 23, 2014

  Actual Average Record
Temperature  
Mean Temperature 40 °F 28 °F  
Max Temperature 51 °F 38 °F 59 °F (2006)
Min Temperature 28 °F 19 °F -4 °F (1950)
Degree Days  
Heating Degree Days 25 37  
Month to date heating degree days 815 699  
Since 1 July heating degree days 1534 1448  
Cooling Degree Days 0 0  
Month to date cooling degree days 0 0  
Year to date cooling degree days 435 593  
Moisture  
Dew Point 41 °F    
Average Humidity 88    
Maximum Humidity 100    
Minimum Humidity 75    
Precipitation  
Precipitation 0.00 in 0.06 in 1.00 in (2001)
Month to date precipitation 0.18 1.31  
Sea Level Pressure  
Sea Level Pressure 29.45 in    
Wind  
Wind Speed 17 mph (West)    
Max Wind Speed 31 mph    
Max Gust Speed 37 mph    
Visibility 7 miles    
Events      
T = Trace of Precipitation, MM = Missing Value Source: NWS Daily Summary

Daily Weather History Graph

Daily Weather History Graph

Search for Another Location

Airport or City:

Trip Planner

Search our weather history database for the weather conditions in past years. The results will help you decide how hot, cold, wet, or windy it might be!

Date:

Astronomy

Nov. 23, 2014 Rise Set
Actual Time 7:22 AM CST 4:48 PM CST
Civil Twilight 6:51 AM CST 5:19 PM CST
Nautical Twilight 6:15 AM CST 5:54 PM CST
Astronomical Twilight 5:41 AM CST 6:28 PM CST
Moon 8:18 AM CST (11/23) 6:12 PM CST (11/23)
Length of Visible Light 10h 28m
Length of Day
9h 25m
New Moon, 2% of the Moon is Illuminated
Nov 23
New Moon
Nov 29
First Quarter
Dec 6
Full
Dec 14
Last Quarter
Dec 21
New

Hourly Weather History & Observations

Time (CST) Temp. Windchill Dew Point Humidity Pressure Visibility Wind Dir Wind Speed Gust Speed Precip Events Conditions
12:17 AM 51.1 °F - 48.9 °F 92% 29.49 in 6.0 mi SSW 15.0 mph - N/A   Overcast
12:25 AM 50.0 °F - 48.9 °F 96% 29.49 in 6.0 mi SSW 13.8 mph - N/A   Overcast
12:52 AM 50.0 °F - 48.9 °F 96% 29.51 in 5.0 mi South 13.8 mph - N/A   Overcast
1:52 AM 50.0 °F - 48.9 °F 96% 29.50 in 6.0 mi South 16.1 mph - N/A   Overcast
2:52 AM 50.0 °F - 48.9 °F 96% 29.48 in 6.0 mi South 11.5 mph - N/A   Overcast
3:07 AM 48.0 °F - 48.0 °F 100% 29.45 in 6.0 mi South 12.7 mph - N/A   Mostly Cloudy
3:31 AM 48.0 °F - 46.9 °F 96% 29.45 in 5.0 mi South 9.2 mph - N/A   Overcast
3:52 AM 48.0 °F - 46.9 °F 96% 29.47 in 5.0 mi South 10.4 mph - N/A   Overcast
4:52 AM 48.9 °F - 48.0 °F 97% 29.44 in 5.0 mi South 16.1 mph - N/A   Overcast
4:59 AM 48.9 °F - 48.0 °F 97% 29.42 in 4.0 mi South 15.0 mph - N/A   Overcast
5:14 AM 48.9 °F - 48.0 °F 97% 29.42 in 4.0 mi South 15.0 mph - N/A   Overcast
5:52 AM 48.9 °F - 48.0 °F 97% 29.46 in 4.0 mi South 10.4 mph - N/A   Overcast
6:24 AM 48.9 °F - 48.0 °F 97% 29.45 in 2.5 mi SSW 9.2 mph - N/A   Overcast
6:48 AM 48.2 °F - 48.2 °F 100% 29.44 in 3.0 mi SSW 8.1 mph - N/A   Overcast
6:52 AM 48.9 °F - 48.0 °F 97% 29.46 in 3.0 mi SSW 8.1 mph - N/A   Overcast
7:37 AM 48.9 °F - 48.0 °F 97% 29.45 in 2.5 mi SSW 11.5 mph - N/A   Overcast
7:52 AM 48.9 °F - 48.0 °F 97% 29.47 in 2.5 mi SSW 10.4 mph - N/A   Overcast
8:52 AM 48.9 °F - 48.0 °F 97% 29.47 in 3.0 mi SSW 10.4 mph - N/A   Overcast
9:33 AM 48.9 °F - 48.0 °F 97% 29.44 in 3.0 mi SW 5.8 mph - N/A   Overcast
9:52 AM 48.9 °F - 48.0 °F 97% 29.45 in 3.0 mi SW 8.1 mph - N/A   Overcast
10:19 AM 48.0 °F - 46.0 °F 93% 29.44 in 5.0 mi NW 9.2 mph - N/A   Overcast
10:30 AM 48.0 °F - 46.0 °F 93% 29.44 in 5.0 mi NW 12.7 mph - N/A   Overcast
10:52 AM 48.0 °F - 46.0 °F 93% 29.45 in 6.0 mi NW 10.4 mph - N/A   Scattered Clouds
11:06 AM 48.0 °F - 46.0 °F 93% 29.43 in 6.0 mi NW 10.4 mph - N/A   Mostly Cloudy
11:37 AM 48.0 °F - 44.1 °F 86% 29.43 in 8.0 mi NW 13.8 mph - N/A   Mostly Cloudy
11:52 AM 46.9 °F - 43.0 °F 86% 29.44 in 9.0 mi NNW 15.0 mph - N/A   Scattered Clouds
12:52 PM 46.9 °F - 41.0 °F 80% 29.44 in 10.0 mi NNW 17.3 mph - N/A   Scattered Clouds
1:03 PM 46.9 °F - 41.0 °F 80% 29.43 in 10.0 mi NW 17.3 mph - N/A   Mostly Cloudy
1:37 PM 44.1 °F 35.9 °F 39.0 °F 82% 29.43 in 10.0 mi NNW 19.6 mph - N/A   Overcast
1:52 PM 43.0 °F 33.5 °F 39.0 °F 86% 29.45 in 10.0 mi NNW 24.2 mph 31.1 mph N/A   Overcast
2:39 PM 42.1 °F 33.3 °F 39.0 °F 89% 29.42 in 10.0 mi NNW 19.6 mph 29.9 mph N/A   Overcast
2:52 PM 42.1 °F 33.6 °F 37.9 °F 85% 29.43 in 10.0 mi NNW 18.4 mph - N/A   Overcast
3:11 PM 43.0 °F 34.5 °F 39.0 °F 86% 29.42 in 10.0 mi NNW 19.6 mph - N/A   Overcast
3:31 PM 42.1 °F 33.1 °F 37.9 °F 85% 29.43 in 10.0 mi NW 20.7 mph 27.6 mph N/A   Overcast
3:52 PM 39.9 °F 30.2 °F 37.0 °F 89% 29.45 in 10.0 mi NNW 20.7 mph 29.9 mph N/A   Overcast
4:00 PM 39.9 °F 29.7 °F 36.0 °F 86% 29.43 in 10.0 mi NNW 23.0 mph 29.9 mph N/A   Overcast
4:52 PM 39.9 °F 31.1 °F 35.1 °F 83% 29.47 in 10.0 mi NNW 17.3 mph - N/A   Overcast
5:52 PM 39.0 °F 29.0 °F 34.0 °F 82% 29.47 in 10.0 mi NW 20.7 mph 25.3 mph N/A   Overcast
6:52 PM 37.0 °F 26.4 °F 30.9 °F 79% 29.47 in 10.0 mi WNW 20.7 mph 28.8 mph N/A   Overcast
7:52 PM 35.1 °F 24.8 °F 30.0 °F 82% 29.46 in 10.0 mi NW 17.3 mph - N/A   Mostly Cloudy
8:52 PM 33.1 °F 20.6 °F 26.1 °F 75% 29.46 in 10.0 mi NW 23.0 mph 33.4 mph N/A   Overcast
8:59 PM 33.1 °F 20.9 °F 26.1 °F 75% 29.44 in 10.0 mi NW 21.9 mph 29.9 mph N/A   Overcast
9:38 PM 32.0 °F 19.8 °F 26.1 °F 79% 29.43 in 10.0 mi NW 20.7 mph - N/A   Overcast
9:52 PM 32.0 °F 19.2 °F 26.1 °F 79% 29.45 in 10.0 mi NW 23.0 mph 28.8 mph N/A   Overcast
10:52 PM 30.0 °F 15.4 °F 25.0 °F 82% 29.46 in 10.0 mi NNW 27.6 mph 34.5 mph N/A   Overcast
11:52 PM 28.0 °F 13.3 °F 21.9 °F 78% 29.45 in 10.0 mi NNW 25.3 mph 34.5 mph N/A   Overcast